N5JNG Weather Reports


time (UTC)temp
C
wind
direction
speed
KPH
gust
KPH
rain 1hr
cm
rain 24hr
cm
rain mn
cm
humidity
%
barometer
mb
20260507015521 26 105 9.7 14.5 0.00 0.03 0.03 100 1007.8
20260507015021 26 98 9.7 14.5 0.00 0.03 0.03 100 1007.7
20260507014520 26 103 9.7 12.9 0.00 0.03 0.03 100 1007.6
20260507014019 27 104 8.0 12.9 0.00 0.03 0.03 100 1007.4
20260507013519 27 98 8.0 12.9 0.00 0.03 0.03 100 1007.4
20260507012519 27 101 8.0 12.9 0.00 0.03 0.03 100 1007.4
20260507011519 27 103 8.0 11.3 0.00 0.03 0.03 100 1007.3
20260507011019 27 101 8.0 12.9 0.00 0.03 0.03 100 1007.3
20260507010519 27 104 9.7 12.9 0.00 0.03 0.03 100 1007.3
20260507010019 27 110 11.3 14.5 0.00 0.03 0.03 100 1007.2
20260507005519 27 103 11.3 14.5 0.00 0.03 0.03 100 1007.2
20260507005017 27 111 9.7 14.5 0.00 0.03 0.03 100 1007.0
20260507004517 27 107 9.7 14.5 0.00 0.03 0.03 100 1006.9
20260507004017 27 92 9.7 14.5 0.00 0.03 0.03 100 1006.9
20260507003518 27 91 9.7 14.5 0.00 0.03 0.03 100 1006.9
20260507003017 27 84 11.3 16.1 0.00 0.03 0.03 100 1006.8
20260507002517 27 65 12.9 19.3 0.00 0.03 0.03 100 1006.8
20260507002018 28 96 12.9 19.3 0.00 0.03 0.03 100 1006.7
20260507001517 28 102 11.3 17.7 0.00 0.03 0.03 100 1006.7
20260507001017 28 104 14.5 20.9 0.00 0.03 0.03 100 1006.7
20260507000015 28 117 14.5 20.9 0.00 0.03 0.03 100 1006.6
20260506235515 28 111 14.5 20.9 0.00 0.03 0.03 100 1006.6
20260506235015 28 107 14.5 19.3 0.00 0.03 0.03 100 1006.5
20260506234515 28 92 14.5 19.3 0.00 0.03 0.03 100 1006.6
20260506233515 28 114 12.9 19.3 0.00 0.03 0.03 100 1006.6
20260506233015 28 117 11.3 19.3 0.00 0.03 0.03 100 1006.5
20260506232515 28 107 9.7 17.7 0.00 0.03 0.03 100 1006.5
20260506232014 28 116 9.7 14.5 0.00 0.03 0.03 100 1006.5
20260506231514 28 117 9.7 14.5 0.00 0.03 0.03 100 1006.5
20260506231013 28 134 11.3 14.5 0.00 0.03 0.03 100 1006.4
20260506230513 28 125 12.9 17.7 0.00 0.03 0.03 100 1006.4
20260506230013 28 113 12.9 17.7 0.00 0.03 0.03 100 1006.4
20260506225513 28 123 12.9 16.1 0.00 0.03 0.03 100 1006.3
20260506225013 28 120 9.7 14.5 0.00 0.03 0.03 100 1006.3
20260506224013 28 135 9.7 14.5 0.00 0.03 0.03 100 1006.2
20260506223514 28 118 8.0 14.5 0.00 0.03 0.03 100 1006.2
20260506223013 28 122 8.0 14.5 0.00 0.03 0.03 100 1006.2
20260506222513 28 127 11.3 16.1 0.00 0.03 0.03 100 1006.1
20260506222011 28 122 12.9 17.7 0.00 0.03 0.03 100 1006.0
20260506221513 28 126 11.3 17.7 0.00 0.03 0.03 100 1006.0
20260506220011 28 94 12.9 16.1 0.00 0.03 0.03 100 1006.2
20260506215511 28 120 12.9 17.7 0.00 0.03 0.03 100 1006.2
20260506214511 28 104 12.9 20.9 0.00 0.03 0.03 100 1006.2
20260506214011 28 91 12.9 19.3 0.00 0.03 0.03 100 1006.2
20260506213510 28 118 14.5 25.7 0.00 0.03 0.03 100 1006.2
20260506213009 28 127 16.1 25.7 0.00 0.03 0.03 100 1006.2
20260506212508 28 118 16.1 24.1 0.00 0.03 0.03 100 1006.2
20260506212009 28 117 16.1 22.5 0.00 0.03 0.03 100 1006.2
20260506211509 28 116 16.1 29.0 0.00 0.03 0.03 100 1006.3
20260506211009 28 108 17.7 29.0 0.00 0.03 0.03 100 1006.4
20260506210009 28 127 16.1 24.1 0.00 0.03 0.03 100 1006.4
20260506205509 28 112 11.3 22.5 0.00 0.03 0.03 100 1006.5
20260506205009 28 109 12.9 19.3 0.00 0.03 0.03 100 1006.5
20260506204509 28 109 14.5 20.9 0.00 0.03 0.03 100 1006.6
20260506203007 28 120 12.9 19.3 0.00 0.03 0.03 100 1006.8
20260506202507 28 130 14.5 19.3 0.00 0.03 0.03 100 1006.9
20260506202008 28 116 14.5 19.3 0.00 0.03 0.03 100 1007.0
20260506201507 28 121 16.1 22.5 0.00 0.03 0.03 100 1006.9
20260506201007 28 121 16.1 22.5 0.00 0.03 0.03 100 1007.0
20260506200507 28 112 16.1 20.9 0.00 0.03 0.03 100 1007.0
20260506200007 28 133 14.5 22.5 0.00 0.03 0.03 100 1007.0
20260506195506 28 122 14.5 22.5 0.00 0.03 0.03 100 1007.1
20260506195005 28 117 14.5 22.5 0.00 0.03 0.03 100 1007.0
20260506194505 28 101 14.5 22.5 0.00 0.03 0.03 100 1007.1
20260506194005 28 114 14.5 19.3 0.00 0.03 0.03 100 1007.2
20260506193505 28 116 12.9 17.7 0.00 0.03 0.03 100 1007.3
20260506193005 28 121 12.9 17.7 0.00 0.03 0.03 100 1007.3
20260506192005 28 126 11.3 17.7 0.00 0.03 0.03 100 1007.5
20260506191505 28 132 9.7 14.5 0.00 0.03 0.03 100 1007.6
20260506191005 28 146 9.7 16.1 0.00 0.03 0.03 100 1007.6
20260506190504 28 157 11.3 17.7 0.00 0.03 0.03 100 1007.7
20260506190005 28 123 9.7 17.7 0.00 0.03 0.03 100 1007.7
20260506185503 28 101 8.0 17.7 0.00 0.03 0.03 100 1007.6
20260506184003 28 176 9.7 17.7 0.00 0.03 0.03 100 1007.6
20260506183503 28 114 9.7 17.7 0.00 0.03 0.03 100 1007.6
20260506183004 28 164 9.7 17.7 0.00 0.03 0.03 100 1007.7
20260506182003 28 144 12.9 19.3 0.00 0.03 0.03 100 1007.8
20260506181002 28 155 14.5 19.3 0.00 0.03 0.03 100 1008.0
20260506180501 27 134 14.5 19.3 0.00 0.03 0.03 100 1008.1
20260506180001 27 136 12.9 19.3 0.00 0.03 0.03 100 1008.2
20260506175501 27 112 12.9 22.5 0.00 0.03 0.03 100 1008.2
20260506175002 27 160 12.9 22.5 0.03 0.03 0.03 100 1008.3
20260506174501 27 146 12.9 20.9 0.03 0.03 0.03 100 1008.4
20260506174001 27 134 11.3 19.3 0.03 0.03 0.03 100 1008.3
20260506173501 27 140 9.7 16.1 0.03 0.03 0.03 100 1008.3
20260506172501 27 123 6.4 12.9 0.03 0.03 0.03 100 1008.4
20260506171500 27 144 3.2 11.3 0.03 0.03 0.03 100 1008.3
20260506170959 27 144 3.2 8.0 0.03 0.03 0.03 100 1008.5
20260506170459 27 144 4.8 9.7 0.03 0.03 0.03 100 1008.4
20260506165959 27 132 8.0 14.5 0.03 0.03 0.03 100 1008.4
20260506165500 27 115 9.7 14.5 0.03 0.03 0.03 100 1008.3
20260506164957 27 106 11.3 14.5 0.00 0.00 0.00 100 1008.2
20260506163957 27 116 8.0 14.5 0.00 0.00 0.00 100 1008.3
20260506163459 27 128 9.7 16.1 0.00 0.00 0.00 100 1008.2
20260506162457 27 138 12.9 17.7 0.00 0.00 0.00 100 1008.1
20260506161955 27 140 14.5 22.5 0.00 0.00 0.00 100 1008.1
20260506161456 27 114 14.5 22.5 0.00 0.00 0.00 100 1008.0
20260506160955 27 119 12.9 20.9 0.00 0.00 0.00 100 1008.0
20260506160453 27 130 11.3 17.7 0.00 0.00 0.00 100 1007.8
20260506155952 27 170 11.3 19.3 0.00 0.00 0.00 100 1007.7
20260506155452 27 123 11.3 19.3 0.00 0.00 0.00 100 1007.7
20260506153451 27 117 12.9 22.5 0.00 0.00 0.00 100 1007.4
20260506152952 27 115 12.9 19.3 0.00 0.00 0.00 100 1007.3
20260506152452 27 129 14.5 22.5 0.00 0.00 0.00 100 1007.3
20260506151951 27 121 16.1 22.5 0.00 0.00 0.00 100 1007.2
20260506151451 27 128 16.1 22.5 0.00 0.00 0.00 100 1007.1
20260506150952 27 132 14.5 25.7 0.00 0.00 0.00 100 1007.2
20260506150452 27 129 14.5 25.7 0.00 0.00 0.00 100 1007.2
20260506145951 27 126 14.5 24.1 0.00 0.00 0.00 100 1007.1
20260506145452 27 119 14.5 24.1 0.00 0.00 0.00 100 1007.0
20260506144451 27 134 14.5 22.5 0.00 0.00 0.00 100 1007.1
20260506143951 27 146 14.5 20.9 0.00 0.00 0.00 100 1007.1
20260506143452 27 148 14.5 20.9 0.00 0.00 0.00 100 1006.9
20260506142951 27 119 14.5 20.9 0.00 0.00 0.00 100 1006.9
20260506141952 27 118 16.1 24.1 0.00 0.00 0.00 100 1007.0
20260506141452 27 116 16.1 24.1 0.00 0.00 0.00 100 1007.0
20260506140951 27 115 12.9 19.3 0.00 0.00 0.00 100 1007.2
20260506135952 26 107 12.9 17.7 0.00 0.00 0.00 100 1007.2
20260506134951 26 116 12.9 17.7 0.00 0.00 0.00 100 1006.9
20260506134451 26 105 11.3 17.7 0.00 0.00 0.00 100 1006.8
20260506133951 26 105 11.3 14.5 0.00 0.00 0.00 100 1006.9
20260506133452 26 130 11.3 17.7 0.00 0.00 0.00 100 1006.9
20260506132952 26 101 12.9 19.3 0.00 0.00 0.00 100 1006.8
20260506132451 26 105 11.3 19.3 0.00 0.00 0.00 100 1006.8
20260506131952 26 116 11.3 16.1 0.00 0.00 0.00 100 1006.8
20260506131452 26 105 11.3 16.1 0.00 0.00 0.00 100 1006.8
20260506130951 26 112 11.3 17.7 0.00 0.00 0.00 100 1006.8
20260506130451 26 104 9.7 17.7 0.00 0.00 0.00 100 1006.7
20260506125449 26 95 8.0 12.9 0.00 0.00 0.00 100 1006.7
20260506124949 26 97 9.7 16.1 0.00 0.00 0.00 100 1006.8
20260506124448 26 97 9.7 16.1 0.00 0.00 0.00 100 1006.6
20260506123948 26 84 9.7 12.9 0.00 0.00 0.00 100 1006.7
20260506122947 26 100 8.0 12.9 0.00 0.00 0.00 100 1006.8
20260506122448 26 109 8.0 12.9 0.00 0.00 0.00 100 1006.7
20260506121948 26 93 6.4 11.3 0.00 0.00 0.00 100 1006.7
20260506121448 26 104 8.0 11.3 0.00 0.00 0.00 100 1006.8
20260506120947 26 95 8.0 12.9 0.00 0.00 0.00 100 1006.7
20260506120448 26 101 8.0 12.9 0.00 0.00 0.00 100 1006.7
20260506115948 26 104 8.0 11.3 0.00 0.00 0.00 100 1006.5
20260506115448 26 102 8.0 11.3 0.00 0.00 0.00 100 1006.5
20260506114947 26 109 8.0 11.3 0.00 0.00 0.00 100 1006.5
20260506114447 26 109 8.0 11.3 0.00 0.00 0.00 100 1006.5
20260506113945 26 103 8.0 11.3 0.00 0.00 0.00 100 1006.4
20260506113446 26 111 6.4 11.3 0.00 0.00 0.00 100 1006.4
20260506112946 26 106 4.8 9.7 0.00 0.00 0.00 100 1006.4
20260506112446 26 104 6.4 9.7 0.00 0.00 0.00 100 1006.5
20260506111945 26 105 6.4 11.3 0.00 0.00 0.00 100 1006.4
20260506111445 26 101 6.4 11.3 0.00 0.00 0.00 100 1006.4
20260506110946 26 107 8.0 12.9 0.00 0.00 0.00 100 1006.5
20260506110446 26 116 8.0 12.9 0.00 0.00 0.00 100 1006.5
20260506105946 26 114 8.0 12.9 0.00 0.00 0.00 100 1006.4
20260506104944 26 114 8.0 12.9 0.00 0.00 0.00 100 1006.4
20260506104444 26 113 8.0 12.9 0.00 0.00 0.00 100 1006.4
20260506103944 26 119 8.0 11.3 0.00 0.00 0.00 100 1006.4
20260506103444 26 122 8.0 14.5 0.00 0.00 0.00 100 1006.5
20260506102944 26 129 6.4 14.5 0.00 0.00 0.00 100 1006.5
20260506101944 26 121 6.4 14.5 0.00 0.00 0.00 100 1006.6
20260506101444 26 119 8.0 14.5 0.00 0.00 0.00 100 1006.6
20260506100945 26 126 8.0 12.9 0.00 0.00 0.00 100 1006.5
20260506095942 26 144 8.0 12.9 0.00 0.00 0.00 100 1006.5
20260506095442 26 118 8.0 14.5 0.00 0.00 0.00 100 1006.4
20260506094942 26 117 8.0 14.5 0.00 0.00 0.00 100 1006.4
20260506094442 26 126 8.0 14.5 0.00 0.00 0.00 100 1006.4
20260506093942 26 125 8.0 16.1 0.00 0.00 0.00 100 1006.3
20260506093442 26 133 9.7 16.1 0.00 0.00 0.00 100 1006.1
20260506092942 26 119 8.0 14.5 0.00 0.00 0.00 100 1006.1
20260506092442 26 119 9.7 16.1 0.00 0.00 0.00 100 1006.2
20260506091942 26 126 11.3 16.1 0.00 0.00 0.00 100 1006.2
20260506090939 26 132 11.3 19.3 0.00 0.00 0.00 100 1006.2
20260506090440 26 111 11.3 19.3 0.00 0.00 0.00 100 1006.1
20260506085940 26 126 12.9 19.3 0.00 0.00 0.00 100 1006.1
20260506085440 26 124 12.9 22.5 0.00 0.00 0.00 100 1006.0
20260506084940 26 128 12.9 22.5 0.00 0.00 0.00 100 1006.1
20260506084439 26 148 12.9 17.7 0.00 0.00 0.00 100 1006.0
20260506083939 26 118 11.3 19.3 0.00 0.00 0.00 100 1006.1
20260506083440 26 142 11.3 19.3 0.00 0.00 0.00 100 1006.1
20260506082940 26 121 11.3 17.7 0.00 0.00 0.00 100 1006.1
20260506080936 26 109 12.9 20.9 0.00 0.00 0.00 100 1006.1
20260506080436 26 117 11.3 20.9 0.00 0.00 0.00 100 1006.2
20260506073436 26 128 11.3 24.1 0.00 0.00 0.00 100 1006.5
20260506072936 26 155 11.3 19.3 0.00 0.00 0.00 100 1006.6
20260506071934 26 161 9.7 17.7 0.00 0.00 0.00 100 1006.9
20260506071434 26 130 9.7 19.3 0.00 0.00 0.00 100 1006.9
20260506070934 26 146 9.7 20.9 0.00 0.00 0.00 100 1007.0
20260506070434 26 144 11.3 20.9 0.00 0.00 0.00 100 1006.9
20260506062434 26 160 12.9 24.1 0.00 0.00 0.00 100 1007.1
20260506061934 26 128 12.9 24.1 0.00 0.00 0.00 100 1007.2
20260506061432 26 131 12.9 24.1 0.00 0.00 0.00 100 1007.3
20260506060932 26 146 12.9 24.1 0.00 0.00 0.00 100 1007.2
20260506060433 26 137 12.9 20.9 0.00 0.00 0.00 100 1007.2
20260506050929 26 161 11.3 19.3 0.00 0.00 0.00 100 1007.1
20260506050427 26 152 14.5 24.1 0.00 0.00 0.00 100 1007.0
20260506044927 26 121 12.9 22.5 0.00 0.00 0.00 100 1007.2
20260506043427 26 132 14.5 20.9 0.00 0.00 0.00 100 1007.1
20260506042927 26 146 16.1 30.6 0.00 0.00 0.00 100 1007.2
20260506041926 27 138 14.5 22.5 0.00 0.00 0.00 100 1007.2
20260506040927 27 138 12.9 25.7 0.00 0.00 0.00 100 1007.2
20260506035927 27 148 14.5 24.1 0.00 0.00 0.00 100 1007.1
20260506035427 27 146 14.5 25.7 0.00 0.00 0.00 100 1007.2
20260506034926 27 147 12.9 25.7 0.00 0.00 0.00 100 1007.0
20260506034426 27 134 14.5 29.0 0.00 0.00 0.00 100 1007.0
20260506033927 27 150 16.1 29.0 0.00 0.00 0.00 100 1006.9
20260506033427 27 117 16.1 29.0 0.00 0.00 0.00 100 1006.9
20260506032926 27 113 14.5 29.0 0.00 0.00 0.00 100 1006.9
20260506032426 27 155 14.5 25.7 0.00 0.00 0.00 100 1006.7
20260506031427 26 130 12.9 24.1 0.00 0.00 0.00 100 1006.7
20260506030926 26 129 14.5 24.1 0.00 0.00 0.00 100 1006.6
20260506025926 26 150 16.1 25.7 0.00 0.00 0.00 100 1006.4
20260506025427 26 131 14.5 29.0 0.00 0.00 0.00 100 1006.4
20260506024926 26 140 14.5 29.0 0.00 0.00 0.00 100 1006.4
20260506024426 26 120 16.1 25.7 0.00 0.00 0.00 100 1006.3
20260506023927 26 119 17.7 30.6 0.00 0.00 0.00 100 1006.2
20260506022926 26 124 16.1 22.5 0.00 0.00 0.00 100 1006.1
20260506022426 27 123 16.1 25.7 0.00 0.00 0.00 100 1006.1
20260506021927 27 121 17.7 29.0 0.00 0.00 0.00 100 1006.0
20260506021427 27 144 17.7 29.0 0.00 0.00 0.00 100 1005.9
20260506020926 27 121 17.7 29.0 0.00 0.00 0.00 100 1005.9
20260506020427 27 133 16.1 29.0 0.00 0.00 0.00 100 1005.9
20260506015927 27 117 17.7 29.0 0.00 0.00 0.00 100 1005.9